Tracking 28794 objects as of 19-Apr-2024
HD Live streaming from Space Station
objects crossing your sky now

SL-16 DEB

Track SL-16 DEB now!
10-day predictions


NORAD ID: 22395
Int'l Code: 1992-093CL
Perigee: 725.1 km
Apogee: 834.2 km
Inclination: 71.1 °
Period: 100.3 minutes
Semi major axis: 7150 km
RCS: 0.0591 m2 (small)
Launch date: December 25, 1992
Source: Commonwealth of Independent States (former USSR) (CIS)
Launch site: TYURATAM MISSILE AND SPACE COMPLEX (TTMTR)

Note: This is SATELLITE DEBRIS
Your satellite tracking list
Your tracking list is empty




NASA's NSSDC Master Catalog

Two Line Element Set (TLE):
1 22395U 92093CL  24110.88454341  .00035687  00000-0  11884-1 0  9991
2 22395  71.1464  57.8259 0076337 240.7249 185.4168 14.35766254607702
Source of the keplerian elements: AFSPC